Tracking 19242 objects as of 19-Sep-2018
HD Live streaming from Space Station
objects crossing your sky now

FENGYUN 1C DEB

Track FENGYUN 1C DEB now!
10-day predictions


NORAD ID: 37421
Int'l Code: 1999-025EGP
Perigee: 813.2 km
Apogee: 1,430.1 km
Inclination: 98.9 °
Period: 107.6 minutes
Semi major axis: 7492 km
RCS: 0.0016 m2 (small)
Launch date: May 10, 1999
Source: People's Republic of China (PRC)
Launch site: Taiyaun Space Center, China (TSC)

Note: This is SATELLITE DEBRIS
aabbcc
Your satellite tracking list
Your tracking list is empty




NASA's NSSDC Master Catalog

Two Line Element Set (TLE):
1 37421U 99025EGP 18261.44944304 -.00000031  00000-0  94144-5 0  9994
2 37421  98.8904 142.6501 0411709 234.6766 121.5220 13.38591834435529
Source of the keplerian elements: AFSPC